This demonstration page uses our WeatherBlox Daily Observations layout. Learn more.

Left ArrowRight Arrow

39.92423, -83.80882

Hourly Observations for June 30, 2022

Temp ( °F °C ) Dew Point ( °F °C ) Humidity (%) Winds ( mph kmh ) Pressure ( in mb ) Visibility ( mi km ) Precip ( " mm )
12:56 am 00:56 Clear 68 20 52 11.1 57 57 S 3 6 30.24 1024 10 16 0.00 0.00
1:56 am 01:56 Clear 68 20 51 10.6 55 55 S 5 7 30.22 1024 10 16 0.00 0.00
2:56 am 02:56 Clear 62 16.7 53 11.7 73 73 SSE 3 6 30.22 1023 10 16 0.00 0.00
3:56 am 03:56 Clear 59 15 55 12.8 87 87 Calm 30.21 1023 10 16 0.00 0.00
4:56 am 04:56 Clear 58 14.4 56 13.3 93 93 Calm 30.21 1023 10 16 0.00 0.00
5:56 am 05:56 Clear 57 13.9 56 13.3 96 96 S 3 6 30.22 1023 10 16 0.00 0.00
6:56 am 06:56 Sunny 57 13.9 57 13.9 100 100 ESE 3 6 30.22 1023 10 16 0.00 0.00
7:56 am 07:56 Sunny 66 18.9 60 15.6 81 81 Calm 30.21 1023 10 16 0.00 0.00
8:56 am 08:56 Sunny 74 23.3 57 13.9 56 56 S 5 7 30.22 1023 10 16 0.00 0.00
9:56 am 09:56 Sunny 78 25.6 55 12.8 45 45 VRB 5 7 30.21 1023 10 16 0.00 0.00
10:56 am 10:56 Sunny 81 27.2 56 13.3 42 42 S 8 13 30.20 1023 10 16 0.00 0.00
11:56 am 11:56 Sunny 83 28.3 55 12.8 38 38 SSE 8 13 30.17 1022 10 16 0.00 0.00
12:56 pm 12:56 Sunny 85 29.4 56 13.3 37 37 SSW 8 13 30.16 1021 10 16 0.00 0.00
1:56 pm 13:56 Sunny 86 30 56 13.3 36 36 S 8 13 30.14 1021 10 16 0.00 0.00
2:56 pm 14:56 Sunny 88 31.1 56 13.3 34 34 SSW 6 9 30.12 1020 10 16 0.00 0.00
3:56 pm 15:56 Sunny 88 31.1 57 13.9 35 35 SSW 8 13 30.10 1019 10 16 0.00 0.00
4:56 pm 16:56 Sunny 89 31.7 56 13.3 33 33 SSW 5 7 30.08 1019 10 16 0.00 0.00
5:56 pm 17:56 Sunny 89 31.7 54 12.2 30 30 S 6 9 30.06 1018 10 16 0.00 0.00
6:56 pm 18:56 Sunny 87 30.6 55 12.8 34 34 S 9 15 30.05 1018 10 16 0.00 0.00
7:56 pm 19:56 Sunny 86 30 57 13.9 37 37 S 5 7 30.05 1018 10 16 0.00 0.00
8:56 pm 20:56 Sunny 80 26.7 57 13.9 45 45 S 5 7 30.04 1017 10 16 0.00 0.00
9:56 pm 21:56 Clear 78 25.6 56 13.3 47 47 S 6 9 30.05 1018 10 16 0.00 0.00
10:56 pm 22:56 Clear 75 23.9 57 13.9 54 54 Calm 30.06 1018 10 16 0.00 0.00
11:56 pm 23:56 Clear 73 22.8 58 14.4 59 59 S 5 7 30.06 1018 10 16 0.00 0.00

Powered by AerisWeather